This demonstration page uses our WeatherBlox Daily Observations layout. Learn more.

Left ArrowRight Arrow

41.55636, -103.73856

Hourly Observations for October 15, 2021

Temp ( °F °C ) Dew Point ( °F °C ) Humidity (%) Winds ( mph kmh ) Pressure ( in mb ) Visibility ( mi km ) Precip ( " mm )
12:58 am 00:58 Clear 30 -1.1 26 -3.2 86 86 WSW 5 7 30.19 1022 10 16 N/A
1:58 am 01:58 Mostly Clear 28 -2.1 25 -4 87 87 WSW 6 9 30.33 1027 10 16 N/A
2:58 am 02:58 Mostly Cloudy 31 -0.3 28 -2.5 85 85 WSW 3 6 30.30 1026 10 16 N/A
3:58 am 03:58 Mostly Cloudy 31 -0.4 28 -2.2 88 88 WSW 5 7 30.21 1023 10 16 N/A
4:58 am 04:58 Mostly Cloudy 31 -0.3 29 -1.9 89 89 W 9 15 30.23 1024 10 16 N/A
5:58 am 05:58 Mostly Cloudy 32 0.1 28 -2.5 83 83 W 8 13 30.25 1025 10 16 N/A
6:58 am 06:58 Mostly Cloudy 31 -0.7 27 -3 85 85 W 7 11 30.29 1026 10 16 N/A
7:58 am 07:58 Partly Cloudy 30 -1.1 26 -3.2 86 86 W 8 13 30.34 1027 10 16 N/A
8:58 am 08:58 Mostly Sunny 37 2.6 26 -3.3 65 65 W 12 19 30.34 1027 10 16 N/A
9:58 am 09:58 Sunny 40 4.4 25 -3.9 55 55 NW 17 28 30.35 1028 10 16 N/A
10:58 am 10:58 Sunny 43 6.3 22 -5.4 43 43 NW 18 30 30.34 1027 10 16 N/A
11:58 am 11:58 Mostly Sunny 45 7.1 21 -6.2 39 39 NW 20 31 30.35 1028 10 16 N/A
12:58 pm 12:58 Sunny 47 8.4 19 -7.4 32 32 NW 21 33 30.32 1027 10 16 N/A
1:58 pm 13:58 Sunny 48 8.8 18 -7.6 31 31 NNW 21 33 30.30 1026 10 16 N/A
2:58 pm 14:58 Sunny 48 9.1 17 -8.2 29 29 NNW 21 33 30.29 1026 10 16 N/A
3:58 pm 15:58 Mostly Sunny 49 9.3 18 -7.7 30 30 NW 15 24 30.32 1027 10 16 N/A
4:58 pm 16:58 Sunny 48 8.9 17 -8.1 29 29 WNW 16 26 30.30 1026 10 16 N/A
5:58 pm 17:58 Sunny 45 7.3 19 -7.4 35 35 NW 12 19 30.32 1027 10 16 N/A
6:58 pm 18:58 Clear 42 5.5 21 -6.2 43 43 WNW 8 13 30.32 1027 10 16 N/A
7:58 pm 19:58 Clear 37 2.6 23 -5.2 57 57 SW 5 7 30.34 1027 10 16 N/A
8:58 pm 20:58 Clear 33 0.5 24 -4.3 71 71 W 10 17 30.34 1027 10 16 N/A
9:58 pm 21:58 Clear 35 1.8 25 -3.9 66 66 W 13 20 30.32 1027 10 16 N/A
10:58 pm 22:58 Clear 36 2 24 -4.5 62 62 W 12 19 30.30 1026 10 16 N/A
11:58 pm 23:58 Clear 37 2.5 24 -4.7 59 59 W 13 20 30.30 1026 10 16 N/A

Powered by AerisWeather